owner,sensor,date,latitude,longitude,vertical_datum,wind_speed,wind_to_direction,wind_speed_of_gust,qcFlag 
TCOON,ioos:station:TCOON:524:1,2017-07-01T00:00:00Z,29.8672,-93.9310,0.0,3.5,180.0,6.1,'11111222,11111222,11111222' 
TCOON,ioos:station:TCOON:524:1,2017-07-01T00:06:00Z,29.8672,-93.9310,0.0,4.6,189.0,6.1,'11111222,11111222,11111222' 
TCOON,ioos:station:TCOON:524:1,2017-07-01T00:12:00Z,29.8672,-93.9310,0.0,3.9,177.0,5.7,'11111222,11111222,11111222' 
TCOON,ioos:station:TCOON:524:1,2017-07-01T00:18:00Z,29.8672,-93.9310,0.0,3.9,177.0,5.7,'1111122,1111122,1111122' 
TCOON,ioos:station:TCOON:524:1,2017-07-01T00:24:00Z,29.8672,-93.9310,0.0,3.3,178.0,5.6,'11111222,11111222,11111222' 
TCOON,ioos:station:TCOON:524:1,2017-07-01T00:30:00Z,29.8672,-93.9310,0.0,3.5,179.0,6.0,'11111222,11111222,11111222' 
TCOON,ioos:station:TCOON:524:1,2017-07-01T00:36:00Z,29.8672,-93.9310,0.0,3.3,183.0,5.3,'11111222,11111222,11111222' 
TCOON,ioos:station:TCOON:524:1,2017-07-01T00:42:00Z,29.8672,-93.9310,0.0,3.9,173.0,5.9,'11111222,11111222,11111222' 
TCOON,ioos:station:TCOON:524:1,2017-07-01T00:48:00Z,29.8672,-93.9310,0.0,4.1,172.0,6.2,'11111222,11111222,11111222' 
TCOON,ioos:station:TCOON:524:1,2017-07-01T00:54:00Z,29.8672,-93.9310,0.0,3.6,175.0,5.4,'11111222,11111222,11111222' 
TCOON,ioos:station:TCOON:524:1,2017-07-01T01:00:00Z,29.8672,-93.9310,0.0,3.4,166.0,5.6,'11111222,11111222,11111222' 
TCOON,ioos:station:TCOON:524:1,2017-07-01T01:06:00Z,29.8672,-93.9310,0.0,4.0,174.0,6.6,'11111222,11111222,11111222' 
TCOON,ioos:station:TCOON:524:1,2017-07-01T01:12:00Z,29.8672,-93.9310,0.0,2.8,180.0,6.0,'11111222,11111222,11111222' 
TCOON,ioos:station:TCOON:524:1,2017-07-01T01:18:00Z,29.8672,-93.9310,0.0,2.8,180.0,6.0,'1111122,1111122,1111122' 
TCOON,ioos:station:TCOON:524:1,2017-07-01T01:24:00Z,29.8672,-93.9310,0.0,4.0,174.0,5.6,'11111222,11111222,11111222' 
TCOON,ioos:station:TCOON:524:1,2017-07-01T01:30:00Z,29.8672,-93.9310,0.0,3.6,181.0,6.1,'11111222,11111222,11111222' 
TCOON,ioos:station:TCOON:524:1,2017-07-01T01:36:00Z,29.8672,-93.9310,0.0,3.6,180.0,6.1,'11111222,11111222,11111222' 
TCOON,ioos:station:TCOON:524:1,2017-07-01T01:42:00Z,29.8672,-93.9310,0.0,3.9,187.0,5.9,'11111222,11111222,11111222' 
TCOON,ioos:station:TCOON:524:1,2017-07-01T01:48:00Z,29.8672,-93.9310,0.0,4.1,184.0,5.7,'11111222,11111222,11111222' 
TCOON,ioos:station:TCOON:524:1,2017-07-01T01:54:00Z,29.8672,-93.9310,0.0,3.6,180.0,5.6,'11111222,11111222,11111222' 
TCOON,ioos:station:TCOON:524:1,2017-07-01T02:00:00Z,29.8672,-93.9310,0.0,3.4,180.0,6.7,'11111222,11111222,11111222' 
TCOON,ioos:station:TCOON:524:1,2017-07-01T02:06:00Z,29.8672,-93.9310,0.0,4.3,181.0,7.3,'11111222,11111222,11111222' 
TCOON,ioos:station:TCOON:524:1,2017-07-01T02:12:00Z,29.8672,-93.9310,0.0,5.0,175.0,6.5,'11111222,11111222,11111222' 
TCOON,ioos:station:TCOON:524:1,2017-07-01T02:18:00Z,29.8672,-93.9310,0.0,5.0,175.0,6.5,'1111122,1111122,1111122' 
TCOON,ioos:station:TCOON:524:1,2017-07-01T02:24:00Z,29.8672,-93.9310,0.0,4.8,171.0,7.7,'11111222,11111222,11111222' 
TCOON,ioos:station:TCOON:524:1,2017-07-01T02:30:00Z,29.8672,-93.9310,0.0,3.9,171.0,7.4,'11111222,11111222,11111222' 
TCOON,ioos:station:TCOON:524:1,2017-07-01T02:36:00Z,29.8672,-93.9310,0.0,3.8,179.0,7.1,'11111222,11111222,11111222' 
TCOON,ioos:station:TCOON:524:1,2017-07-01T02:42:00Z,29.8672,-93.9310,0.0,5.1,180.0,7.3,'11111222,11111222,11111222' 
TCOON,ioos:station:TCOON:524:1,2017-07-01T02:48:00Z,29.8672,-93.9310,0.0,4.1,179.0,8.3,'11111222,11111222,11111222' 
TCOON,ioos:station:TCOON:524:1,2017-07-01T02:54:00Z,29.8672,-93.9310,0.0,4.2,183.0,6.2,'11111222,11111222,11111222' 
TCOON,ioos:station:TCOON:524:1,2017-07-01T03:00:00Z,29.8672,-93.9310,0.0,3.8,174.0,5.5,'11111222,11111222,11111222' 
TCOON,ioos:station:TCOON:524:1,2017-07-01T03:06:00Z,29.8672,-93.9310,0.0,3.6,185.0,5.8,'11111222,11111222,11111222' 
TCOON,ioos:station:TCOON:524:1,2017-07-01T03:12:00Z,29.8672,-93.9310,0.0,3.6,180.0,5.3,'11111222,11111222,11111222' 
TCOON,ioos:station:TCOON:524:1,2017-07-01T03:18:00Z,29.8672,-93.9310,0.0,3.6,180.0,5.3,'1111122,1111122,1111122' 
TCOON,ioos:station:TCOON:524:1,2017-07-01T03:24:00Z,29.8672,-93.9310,0.0,3.0,181.0,5.9,'11111222,11111222,11111222' 
TCOON,ioos:station:TCOON:524:1,2017-07-01T03:30:00Z,29.8672,-93.9310,0.0,3.3,175.0,5.7,'11111222,11111222,11111222' 
TCOON,ioos:station:TCOON:524:1,2017-07-01T03:36:00Z,29.8672,-93.9310,0.0,3.1,174.0,5.2,'11111222,11111222,11111222' 
TCOON,ioos:station:TCOON:524:1,2017-07-01T03:42:00Z,29.8672,-93.9310,0.0,3.0,179.0,4.6,'11111222,11111222,11111222' 
TCOON,ioos:station:TCOON:524:1,2017-07-01T03:48:00Z,29.8672,-93.9310,0.0,3.9,176.0,6.1,'11111222,11111222,11111222' 
TCOON,ioos:station:TCOON:524:1,2017-07-01T03:54:00Z,29.8672,-93.9310,0.0,3.4,179.0,5.6,'11111222,11111222,11111222' 
TCOON,ioos:station:TCOON:524:1,2017-07-01T04:00:00Z,29.8672,-93.9310,0.0,4.4,181.0,5.8,'11111222,11111222,11111222' 
TCOON,ioos:station:TCOON:524:1,2017-07-01T04:06:00Z,29.8672,-93.9310,0.0,3.6,184.0,5.5,'11111222,11111222,11111222' 
TCOON,ioos:station:TCOON:524:1,2017-07-01T04:12:00Z,29.8672,-93.9310,0.0,3.4,183.0,5.9,'11111222,11111222,11111222' 
TCOON,ioos:station:TCOON:524:1,2017-07-01T04:18:00Z,29.8672,-93.9310,0.0,3.4,183.0,5.9,'1111122,1111122,1111122' 
TCOON,ioos:station:TCOON:524:1,2017-07-01T04:24:00Z,29.8672,-93.9310,0.0,3.4,183.0,6.0,'11111222,11111222,11111222' 
TCOON,ioos:station:TCOON:524:1,2017-07-01T04:30:00Z,29.8672,-93.9310,0.0,3.5,189.0,5.6,'11111222,11111222,11111222' 
TCOON,ioos:station:TCOON:524:1,2017-07-01T04:36:00Z,29.8672,-93.9310,0.0,3.8,185.0,6.7,'11111222,11111222,11111222' 
TCOON,ioos:station:TCOON:524:1,2017-07-01T04:42:00Z,29.8672,-93.9310,0.0,3.5,187.0,5.3,'11111222,11111222,11111222' 
TCOON,ioos:station:TCOON:524:1,2017-07-01T04:48:00Z,29.8672,-93.9310,0.0,3.8,186.0,5.7,'11111222,11111222,11111222' 
TCOON,ioos:station:TCOON:524:1,2017-07-01T04:54:00Z,29.8672,-93.9310,0.0,4.3,184.0,6.4,'11111222,11111222,11111222' 
TCOON,ioos:station:TCOON:524:1,2017-07-01T05:00:00Z,29.8672,-93.9310,0.0,3.8,186.0,5.6,'11111222,11111222,11111222' 
TCOON,ioos:station:TCOON:524:1,2017-07-01T05:06:00Z,29.8672,-93.9310,0.0,3.4,185.0,5.1,'11111222,11111222,11111222' 
TCOON,ioos:station:TCOON:524:1,2017-07-01T05:12:00Z,29.8672,-93.9310,0.0,2.6,198.0,4.9,'11111222,11111222,11111222' 
TCOON,ioos:station:TCOON:524:1,2017-07-01T05:18:00Z,29.8672,-93.9310,0.0,2.6,198.0,4.9,'1111122,1111122,1111122' 
TCOON,ioos:station:TCOON:524:1,2017-07-01T05:24:00Z,29.8672,-93.9310,0.0,2.7,191.0,4.4,'11111222,11111222,11111222' 
TCOON,ioos:station:TCOON:524:1,2017-07-01T05:30:00Z,29.8672,-93.9310,0.0,2.4,190.0,4.0,'11111222,11111222,11111222' 
TCOON,ioos:station:TCOON:524:1,2017-07-01T05:36:00Z,29.8672,-93.9310,0.0,3.4,194.0,4.3,'11111222,11111222,11111222' 
TCOON,ioos:station:TCOON:524:1,2017-07-01T05:42:00Z,29.8672,-93.9310,0.0,2.8,187.0,4.8,'11111222,11111222,11111222' 
TCOON,ioos:station:TCOON:524:1,2017-07-01T05:48:00Z,29.8672,-93.9310,0.0,2.4,197.0,5.4,'11111222,11111222,11111222' 
TCOON,ioos:station:TCOON:524:1,2017-07-01T05:54:00Z,29.8672,-93.9310,0.0,2.8,194.0,3.9,'11111222,11111222,11111222' 
TCOON,ioos:station:TCOON:524:1,2017-07-01T06:00:00Z,29.8672,-93.9310,0.0,3.2,192.0,5.4,'11111222,11111222,11111222' 
TCOON,ioos:station:TCOON:524:1,2017-07-01T06:06:00Z,29.8672,-93.9310,0.0,3.0,191.0,4.1,'11111222,11111222,11111222' 
TCOON,ioos:station:TCOON:524:1,2017-07-01T06:12:00Z,29.8672,-93.9310,0.0,2.7,192.0,4.6,'11111222,11111222,11111222' 
TCOON,ioos:station:TCOON:524:1,2017-07-01T06:18:00Z,29.8672,-93.9310,0.0,2.5,192.0,4.0,'11111222,11111222,11111222' 
TCOON,ioos:station:TCOON:524:1,2017-07-01T06:24:00Z,29.8672,-93.9310,0.0,2.5,192.0,4.0,'1111122,1111122,1111122' 
TCOON,ioos:station:TCOON:524:1,2017-07-01T06:30:00Z,29.8672,-93.9310,0.0,2.6,195.0,4.0,'11111222,11111222,11111222' 
TCOON,ioos:station:TCOON:524:1,2017-07-01T06:36:00Z,29.8672,-93.9310,0.0,2.7,192.0,3.7,'11111222,11111222,11111222' 
TCOON,ioos:station:TCOON:524:1,2017-07-01T06:42:00Z,29.8672,-93.9310,0.0,2.6,191.0,3.5,'11111222,11111222,11111222' 
TCOON,ioos:station:TCOON:524:1,2017-07-01T06:48:00Z,29.8672,-93.9310,0.0,2.7,192.0,4.0,'11111222,11111222,11111222' 
TCOON,ioos:station:TCOON:524:1,2017-07-01T06:54:00Z,29.8672,-93.9310,0.0,2.1,198.0,3.0,'11111222,11111222,11111222' 
TCOON,ioos:station:TCOON:524:1,2017-07-01T07:00:00Z,29.8672,-93.9310,0.0,2.5,200.0,3.8,'11111222,11111222,11111222' 
TCOON,ioos:station:TCOON:524:1,2017-07-01T07:06:00Z,29.8672,-93.9310,0.0,2.5,195.0,3.5,'11111222,11111222,11111222' 
TCOON,ioos:station:TCOON:524:1,2017-07-01T07:12:00Z,29.8672,-93.9310,0.0,2.1,196.0,3.8,'11111222,11111222,11111222' 
TCOON,ioos:station:TCOON:524:1,2017-07-01T07:18:00Z,29.8672,-93.9310,0.0,2.1,196.0,3.8,'1111122,1111122,1111122' 
TCOON,ioos:station:TCOON:524:1,2017-07-01T07:24:00Z,29.8672,-93.9310,0.0,2.0,193.0,2.9,'11111222,11111222,11111222' 
TCOON,ioos:station:TCOON:524:1,2017-07-01T07:30:00Z,29.8672,-93.9310,0.0,2.3,189.0,3.4,'11111222,11111222,11111222' 
TCOON,ioos:station:TCOON:524:1,2017-07-01T07:36:00Z,29.8672,-93.9310,0.0,2.1,191.0,3.2,'11111222,11111222,11111222' 
TCOON,ioos:station:TCOON:524:1,2017-07-01T07:42:00Z,29.8672,-93.9310,0.0,2.3,196.0,3.7,'11111222,11111222,11111222' 
TCOON,ioos:station:TCOON:524:1,2017-07-01T07:48:00Z,29.8672,-93.9310,0.0,2.6,206.0,3.6,'11111222,11111222,11111222' 
TCOON,ioos:station:TCOON:524:1,2017-07-01T07:54:00Z,29.8672,-93.9310,0.0,2.5,194.0,3.7,'11111222,11111222,11111222' 
TCOON,ioos:station:TCOON:524:1,2017-07-01T08:00:00Z,29.8672,-93.9310,0.0,2.9,198.0,4.9,'11111222,11111222,11111222' 
TCOON,ioos:station:TCOON:524:1,2017-07-01T08:06:00Z,29.8672,-93.9310,0.0,2.0,197.0,3.0,'11111222,11111222,11111222' 
TCOON,ioos:station:TCOON:524:1,2017-07-01T08:12:00Z,29.8672,-93.9310,0.0,2.2,200.0,3.0,'11111222,11111222,11111222' 
TCOON,ioos:station:TCOON:524:1,2017-07-01T08:18:00Z,29.8672,-93.9310,0.0,2.2,200.0,3.0,'1111122,1111122,1111122' 
TCOON,ioos:station:TCOON:524:1,2017-07-01T08:24:00Z,29.8672,-93.9310,0.0,1.9,201.0,2.8,'11111222,11111222,11111222' 
TCOON,ioos:station:TCOON:524:1,2017-07-01T08:30:00Z,29.8672,-93.9310,0.0,1.9,204.0,2.8,'11111222,11111222,11111222' 
TCOON,ioos:station:TCOON:524:1,2017-07-01T08:36:00Z,29.8672,-93.9310,0.0,1.9,201.0,3.0,'11111222,11111222,11111222' 
TCOON,ioos:station:TCOON:524:1,2017-07-01T08:42:00Z,29.8672,-93.9310,0.0,1.9,193.0,2.6,'11111222,11111222,11111222' 
TCOON,ioos:station:TCOON:524:1,2017-07-01T08:48:00Z,29.8672,-93.9310,0.0,2.1,177.0,3.1,'11111222,11111222,11111222' 
TCOON,ioos:station:TCOON:524:1,2017-07-01T08:54:00Z,29.8672,-93.9310,0.0,2.1,183.0,3.3,'11111222,11111222,11111222' 
TCOON,ioos:station:TCOON:524:1,2017-07-01T09:00:00Z,29.8672,-93.9310,0.0,2.4,186.0,3.3,'11111222,11111222,11111222' 
TCOON,ioos:station:TCOON:524:1,2017-07-01T09:06:00Z,29.8672,-93.9310,0.0,1.5,192.0,3.4,'11111222,11111222,11111222' 
TCOON,ioos:station:TCOON:524:1,2017-07-01T09:12:00Z,29.8672,-93.9310,0.0,2.0,196.0,2.8,'11111222,11111222,11111222' 
TCOON,ioos:station:TCOON:524:1,2017-07-01T09:18:00Z,29.8672,-93.9310,0.0,2.0,196.0,2.8,'1111122,1111122,1111122' 
TCOON,ioos:station:TCOON:524:1,2017-07-01T09:24:00Z,29.8672,-93.9310,0.0,2.1,190.0,3.0,'11111222,11111222,11111222' 
TCOON,ioos:station:TCOON:524:1,2017-07-01T09:30:00Z,29.8672,-93.9310,0.0,2.1,187.0,2.5,'11111222,11111222,11111222' 
TCOON,ioos:station:TCOON:524:1,2017-07-01T09:36:00Z,29.8672,-93.9310,0.0,1.7,181.0,2.6,'11111222,11111222,11111222' 
TCOON,ioos:station:TCOON:524:1,2017-07-01T09:42:00Z,29.8672,-93.9310,0.0,2.0,184.0,3.3,'11111222,11111222,11111222' 
TCOON,ioos:station:TCOON:524:1,2017-07-01T09:48:00Z,29.8672,-93.9310,0.0,2.0,186.0,3.3,'11111222,11111222,11111222' 
TCOON,ioos:station:TCOON:524:1,2017-07-01T09:54:00Z,29.8672,-93.9310,0.0,1.6,192.0,2.8,'11111222,11111222,11111222' 
TCOON,ioos:station:TCOON:524:1,2017-07-01T10:00:00Z,29.8672,-93.9310,0.0,2.3,186.0,2.9,'11111222,11111222,11111222' 
TCOON,ioos:station:TCOON:524:1,2017-07-01T10:06:00Z,29.8672,-93.9310,0.0,1.6,177.0,2.7,'11111222,11111222,11111222' 
TCOON,ioos:station:TCOON:524:1,2017-07-01T10:12:00Z,29.8672,-93.9310,0.0,1.9,178.0,2.7,'11111222,11111222,11111222' 
TCOON,ioos:station:TCOON:524:1,2017-07-01T10:18:00Z,29.8672,-93.9310,0.0,1.9,178.0,2.7,'1111122,1111122,1111122' 
TCOON,ioos:station:TCOON:524:1,2017-07-01T10:24:00Z,29.8672,-93.9310,0.0,1.2,180.0,2.0,'11111222,11111222,11111222' 
TCOON,ioos:station:TCOON:524:1,2017-07-01T10:30:00Z,29.8672,-93.9310,0.0,0.9,187.0,1.7,'11111222,11111222,11111222' 
TCOON,ioos:station:TCOON:524:1,2017-07-01T10:36:00Z,29.8672,-93.9310,0.0,0.8,192.0,1.3,'11111222,11111222,11111222' 
TCOON,ioos:station:TCOON:524:1,2017-07-01T10:42:00Z,29.8672,-93.9310,0.0,0.6,184.0,1.2,'11111222,11111222,11111222' 
TCOON,ioos:station:TCOON:524:1,2017-07-01T10:48:00Z,29.8672,-93.9310,0.0,0.7,183.0,1.0,'11111222,11111222,11111222' 
TCOON,ioos:station:TCOON:524:1,2017-07-01T10:54:00Z,29.8672,-93.9310,0.0,1.5,169.0,2.2,'11111222,11111222,11111222' 
TCOON,ioos:station:TCOON:524:1,2017-07-01T11:00:00Z,29.8672,-93.9310,0.0,1.1,165.0,1.9,'11111222,11111222,11111222' 
TCOON,ioos:station:TCOON:524:1,2017-07-01T11:06:00Z,29.8672,-93.9310,0.0,0.8,167.0,1.6,'11111222,11111222,11111222' 
TCOON,ioos:station:TCOON:524:1,2017-07-01T11:12:00Z,29.8672,-93.9310,0.0,0.9,167.0,1.6,'11111222,11111222,11111222' 
TCOON,ioos:station:TCOON:524:1,2017-07-01T11:18:00Z,29.8672,-93.9310,0.0,0.9,167.0,1.6,'1111122,1111122,1111122' 
TCOON,ioos:station:TCOON:524:1,2017-07-01T11:24:00Z,29.8672,-93.9310,0.0,0.7,183.0,1.3,'11111222,11111222,11111222' 
TCOON,ioos:station:TCOON:524:1,2017-07-01T11:30:00Z,29.8672,-93.9310,0.0,0.9,168.0,1.2,'11111222,11111222,11111222' 
TCOON,ioos:station:TCOON:524:1,2017-07-01T11:36:00Z,29.8672,-93.9310,0.0,1.6,163.0,2.2,'11111222,11111222,11111222' 
TCOON,ioos:station:TCOON:524:1,2017-07-01T11:42:00Z,29.8672,-93.9310,0.0,1.4,169.0,2.2,'11111222,11111222,11111222' 
TCOON,ioos:station:TCOON:524:1,2017-07-01T11:48:00Z,29.8672,-93.9310,0.0,1.0,162.0,1.6,'11111222,11111222,11111222' 
TCOON,ioos:station:TCOON:524:1,2017-07-01T11:54:00Z,29.8672,-93.9310,0.0,0.9,179.0,1.7,'11111222,11111222,11111222' 
TCOON,ioos:station:TCOON:524:1,2017-07-01T12:00:00Z,29.8672,-93.9310,0.0,1.0,174.0,1.4,'11111222,11111222,11111222' 
TCOON,ioos:station:TCOON:524:1,2017-07-01T12:06:00Z,29.8672,-93.9310,0.0,0.5,180.0,1.3,'11111222,11111222,11111222' 
TCOON,ioos:station:TCOON:524:1,2017-07-01T12:12:00Z,29.8672,-93.9310,0.0,0.5,200.0,0.7,'11111222,11111222,11111222' 
TCOON,ioos:station:TCOON:524:1,2017-07-01T12:18:00Z,29.8672,-93.9310,0.0,0.5,200.0,0.8,'1111122,1111122,1111122' 
TCOON,ioos:station:TCOON:524:1,2017-07-01T12:24:00Z,29.8672,-93.9310,0.0,0.8,197.0,1.2,'11111222,11111222,11111222' 
TCOON,ioos:station:TCOON:524:1,2017-07-01T12:30:00Z,29.8672,-93.9310,0.0,0.6,212.0,1.3,'11111222,11111222,11111222' 
TCOON,ioos:station:TCOON:524:1,2017-07-01T12:36:00Z,29.8672,-93.9310,0.0,0.9,193.0,1.1,'11111222,11111222,11111222' 
TCOON,ioos:station:TCOON:524:1,2017-07-01T12:42:00Z,29.8672,-93.9310,0.0,1.1,183.0,1.4,'11111222,11111222,11111222' 
TCOON,ioos:station:TCOON:524:1,2017-07-01T12:48:00Z,29.8672,-93.9310,0.0,1.4,169.0,1.8,'11111222,11111222,11111222' 
TCOON,ioos:station:TCOON:524:1,2017-07-01T12:54:00Z,29.8672,-93.9310,0.0,1.6,160.0,2.4,'11111222,11111222,11111222' 
TCOON,ioos:station:TCOON:524:1,2017-07-01T13:00:00Z,29.8672,-93.9310,0.0,1.3,179.0,2.5,'11111222,11111222,11111222' 
TCOON,ioos:station:TCOON:524:1,2017-07-01T13:06:00Z,29.8672,-93.9310,0.0,1.4,161.0,2.2,'11111222,11111222,11111222' 
TCOON,ioos:station:TCOON:524:1,2017-07-01T13:12:00Z,29.8672,-93.9310,0.0,1.7,169.0,2.7,'11111222,11111222,11111222' 
TCOON,ioos:station:TCOON:524:1,2017-07-01T13:18:00Z,29.8672,-93.9310,0.0,1.7,169.0,2.7,'1111122,1111122,1111122' 
TCOON,ioos:station:TCOON:524:1,2017-07-01T13:24:00Z,29.8672,-93.9310,0.0,1.9,153.0,2.6,'11111222,11111222,11111222' 
TCOON,ioos:station:TCOON:524:1,2017-07-01T13:30:00Z,29.8672,-93.9310,0.0,1.7,164.0,2.9,'11111222,11111222,11111222' 
TCOON,ioos:station:TCOON:524:1,2017-07-01T13:36:00Z,29.8672,-93.9310,0.0,1.9,174.0,3.6,'11111222,11111222,11111222' 
TCOON,ioos:station:TCOON:524:1,2017-07-01T13:42:00Z,29.8672,-93.9310,0.0,1.2,184.0,2.9,'11111222,11111222,11111222' 
TCOON,ioos:station:TCOON:524:1,2017-07-01T13:48:00Z,29.8672,-93.9310,0.0,2.4,174.0,3.2,'11111222,11111222,11111222' 
TCOON,ioos:station:TCOON:524:1,2017-07-01T13:54:00Z,29.8672,-93.9310,0.0,2.2,175.0,3.5,'11111222,11111222,11111222' 
TCOON,ioos:station:TCOON:524:1,2017-07-01T14:00:00Z,29.8672,-93.9310,0.0,2.6,157.0,3.5,'11111222,11111222,11111222' 
TCOON,ioos:station:TCOON:524:1,2017-07-01T14:06:00Z,29.8672,-93.9310,0.0,1.6,148.0,3.4,'11111222,11111222,11111222' 
TCOON,ioos:station:TCOON:524:1,2017-07-01T14:12:00Z,29.8672,-93.9310,0.0,2.1,163.0,3.3,'11111222,11111222,11111222' 
TCOON,ioos:station:TCOON:524:1,2017-07-01T14:18:00Z,29.8672,-93.9310,0.0,2.4,151.0,3.4,'11111222,11111222,11111222' 
TCOON,ioos:station:TCOON:524:1,2017-07-01T14:24:00Z,29.8672,-93.9310,0.0,2.4,151.0,3.4,'1111122,1111122,1111122' 
TCOON,ioos:station:TCOON:524:1,2017-07-01T14:30:00Z,29.8672,-93.9310,0.0,2.7,152.0,3.5,'11111222,11111222,11111222' 
TCOON,ioos:station:TCOON:524:1,2017-07-01T14:36:00Z,29.8672,-93.9310,0.0,2.9,151.0,4.3,'11111222,11111222,11111222' 
TCOON,ioos:station:TCOON:524:1,2017-07-01T14:42:00Z,29.8672,-93.9310,0.0,3.1,150.0,4.1,'11111222,11111222,11111222' 
TCOON,ioos:station:TCOON:524:1,2017-07-01T14:48:00Z,29.8672,-93.9310,0.0,3.0,150.0,4.3,'11111222,11111222,11111222' 
TCOON,ioos:station:TCOON:524:1,2017-07-01T14:54:00Z,29.8672,-93.9310,0.0,3.0,146.0,4.8,'11111222,11111222,11111222' 
TCOON,ioos:station:TCOON:524:1,2017-07-01T15:00:00Z,29.8672,-93.9310,0.0,1.9,171.0,4.3,'11111222,11111222,11111222' 
TCOON,ioos:station:TCOON:524:1,2017-07-01T15:06:00Z,29.8672,-93.9310,0.0,2.6,163.0,3.8,'11111222,11111222,11111222' 
TCOON,ioos:station:TCOON:524:1,2017-07-01T15:12:00Z,29.8672,-93.9310,0.0,3.3,143.0,4.6,'11111222,11111222,11111222' 
TCOON,ioos:station:TCOON:524:1,2017-07-01T15:18:00Z,29.8672,-93.9310,0.0,3.3,143.0,4.6,'1111122,1111122,1111122' 
TCOON,ioos:station:TCOON:524:1,2017-07-01T15:24:00Z,29.8672,-93.9310,0.0,3.5,158.0,4.9,'11111222,11111222,11111222' 
TCOON,ioos:station:TCOON:524:1,2017-07-01T15:30:00Z,29.8672,-93.9310,0.0,3.3,152.0,4.7,'11111222,11111222,11111222' 
TCOON,ioos:station:TCOON:524:1,2017-07-01T15:36:00Z,29.8672,-93.9310,0.0,3.2,143.0,4.6,'11111222,11111222,11111222' 
TCOON,ioos:station:TCOON:524:1,2017-07-01T15:42:00Z,29.8672,-93.9310,0.0,3.1,156.0,4.2,'11111222,11111222,11111222' 
TCOON,ioos:station:TCOON:524:1,2017-07-01T15:48:00Z,29.8672,-93.9310,0.0,4.2,156.0,5.9,'11111222,11111222,11111222' 
TCOON,ioos:station:TCOON:524:1,2017-07-01T15:54:00Z,29.8672,-93.9310,0.0,3.9,160.0,5.5,'11111222,11111222,11111222' 
TCOON,ioos:station:TCOON:524:1,2017-07-01T16:00:00Z,29.8672,-93.9310,0.0,3.5,155.0,5.1,'11111222,11111222,11111222' 
TCOON,ioos:station:TCOON:524:1,2017-07-01T16:06:00Z,29.8672,-93.9310,0.0,3.3,172.0,5.9,'11111222,11111222,11111222' 
TCOON,ioos:station:TCOON:524:1,2017-07-01T16:12:00Z,29.8672,-93.9310,0.0,3.0,163.0,6.2,'11111222,11111222,11111222' 
TCOON,ioos:station:TCOON:524:1,2017-07-01T16:18:00Z,29.8672,-93.9310,0.0,3.0,163.0,6.2,'1111122,1111122,1111122' 
TCOON,ioos:station:TCOON:524:1,2017-07-01T16:24:00Z,29.8672,-93.9310,0.0,3.3,170.0,5.6,'11111222,11111222,11111222' 
TCOON,ioos:station:TCOON:524:1,2017-07-01T16:30:00Z,29.8672,-93.9310,0.0,3.7,160.0,6.2,'11111222,11111222,11111222' 
TCOON,ioos:station:TCOON:524:1,2017-07-01T16:36:00Z,29.8672,-93.9310,0.0,3.4,160.0,5.9,'11111222,11111222,11111222' 
TCOON,ioos:station:TCOON:524:1,2017-07-01T16:42:00Z,29.8672,-93.9310,0.0,4.1,162.0,6.7,'11111222,11111222,11111222' 
TCOON,ioos:station:TCOON:524:1,2017-07-01T16:48:00Z,29.8672,-93.9310,0.0,3.9,167.0,5.7,'11111222,11111222,11111222' 
TCOON,ioos:station:TCOON:524:1,2017-07-01T16:54:00Z,29.8672,-93.9310,0.0,3.2,164.0,5.9,'11111222,11111222,11111222' 
TCOON,ioos:station:TCOON:524:1,2017-07-01T17:00:00Z,29.8672,-93.9310,0.0,3.6,161.0,5.7,'11111222,11111222,11111222' 
TCOON,ioos:station:TCOON:524:1,2017-07-01T17:06:00Z,29.8672,-93.9310,0.0,4.7,166.0,6.8,'11111222,11111222,11111222' 
TCOON,ioos:station:TCOON:524:1,2017-07-01T17:12:00Z,29.8672,-93.9310,0.0,3.2,158.0,6.1,'11111222,11111222,11111222' 
TCOON,ioos:station:TCOON:524:1,2017-07-01T17:18:00Z,29.8672,-93.9310,0.0,3.2,158.0,6.1,'1111122,1111122,1111122' 
TCOON,ioos:station:TCOON:524:1,2017-07-01T17:24:00Z,29.8672,-93.9310,0.0,3.8,179.0,6.1,'11111222,11111222,11111222' 
TCOON,ioos:station:TCOON:524:1,2017-07-01T17:30:00Z,29.8672,-93.9310,0.0,3.7,165.0,4.8,'11111222,11111222,11111222' 
TCOON,ioos:station:TCOON:524:1,2017-07-01T17:36:00Z,29.8672,-93.9310,0.0,4.0,166.0,5.7,'11111222,11111222,11111222' 
TCOON,ioos:station:TCOON:524:1,2017-07-01T17:42:00Z,29.8672,-93.9310,0.0,3.1,151.0,5.5,'11111222,11111222,11111222' 
TCOON,ioos:station:TCOON:524:1,2017-07-01T17:48:00Z,29.8672,-93.9310,0.0,3.7,169.0,7.0,'11111222,11111222,11111222' 
TCOON,ioos:station:TCOON:524:1,2017-07-01T17:54:00Z,29.8672,-93.9310,0.0,3.6,179.0,4.8,'11111222,11111222,11111222' 
TCOON,ioos:station:TCOON:524:1,2017-07-01T18:00:00Z,29.8672,-93.9310,0.0,3.7,154.0,5.3,'11111222,11111222,11111222' 
TCOON,ioos:station:TCOON:524:1,2017-07-01T18:06:00Z,29.8672,-93.9310,0.0,4.5,198.0,5.8,'11111222,11111222,11111222' 
TCOON,ioos:station:TCOON:524:1,2017-07-01T18:12:00Z,29.8672,-93.9310,0.0,3.2,189.0,4.7,'11111222,11111222,11111222' 
TCOON,ioos:station:TCOON:524:1,2017-07-01T18:18:00Z,29.8672,-93.9310,0.0,3.2,189.0,4.7,'1111122,1111122,1111122' 
TCOON,ioos:station:TCOON:524:1,2017-07-01T18:24:00Z,29.8672,-93.9310,0.0,3.4,191.0,5.9,'11111222,11111222,11111222' 
TCOON,ioos:station:TCOON:524:1,2017-07-01T18:30:00Z,29.8672,-93.9310,0.0,3.1,199.0,5.7,'11111222,11111222,11111222' 
TCOON,ioos:station:TCOON:524:1,2017-07-01T18:36:00Z,29.8672,-93.9310,0.0,3.0,182.0,5.9,'11111222,11111222,11111222' 
TCOON,ioos:station:TCOON:524:1,2017-07-01T18:42:00Z,29.8672,-93.9310,0.0,4.2,189.0,6.5,'11111222,11111222,11111222' 
TCOON,ioos:station:TCOON:524:1,2017-07-01T18:48:00Z,29.8672,-93.9310,0.0,3.4,177.0,6.3,'11111222,11111222,11111222' 
TCOON,ioos:station:TCOON:524:1,2017-07-01T18:54:00Z,29.8672,-93.9310,0.0,4.5,193.0,6.6,'11111222,11111222,11111222' 
TCOON,ioos:station:TCOON:524:1,2017-07-01T19:00:00Z,29.8672,-93.9310,0.0,3.7,165.0,5.7,'11111222,11111222,11111222' 
TCOON,ioos:station:TCOON:524:1,2017-07-01T19:06:00Z,29.8672,-93.9310,0.0,4.0,179.0,5.3,'11111222,11111222,11111222' 
TCOON,ioos:station:TCOON:524:1,2017-07-01T19:12:00Z,29.8672,-93.9310,0.0,4.5,202.0,7.1,'11111222,11111222,11111222' 
TCOON,ioos:station:TCOON:524:1,2017-07-01T19:18:00Z,29.8672,-93.9310,0.0,4.5,202.0,7.1,'1111122,1111122,1111122' 
TCOON,ioos:station:TCOON:524:1,2017-07-01T19:24:00Z,29.8672,-93.9310,0.0,5.1,191.0,6.7,'11111222,11111222,11111222' 
TCOON,ioos:station:TCOON:524:1,2017-07-01T19:30:00Z,29.8672,-93.9310,0.0,3.3,189.0,5.1,'11111222,11111222,11111222' 
TCOON,ioos:station:TCOON:524:1,2017-07-01T19:36:00Z,29.8672,-93.9310,0.0,3.4,206.0,6.0,'11111222,11111222,11111222' 
TCOON,ioos:station:TCOON:524:1,2017-07-01T19:42:00Z,29.8672,-93.9310,0.0,3.4,198.0,5.4,'11111222,11111222,11111222' 
TCOON,ioos:station:TCOON:524:1,2017-07-01T19:48:00Z,29.8672,-93.9310,0.0,4.1,184.0,5.6,'11111222,11111222,11111222' 
TCOON,ioos:station:TCOON:524:1,2017-07-01T19:54:00Z,29.8672,-93.9310,0.0,3.4,198.0,6.0,'11111222,11111222,11111222' 
TCOON,ioos:station:TCOON:524:1,2017-07-01T20:00:00Z,29.8672,-93.9310,0.0,4.7,191.0,6.0,'11111222,11111222,11111222' 
TCOON,ioos:station:TCOON:524:1,2017-07-01T20:06:00Z,29.8672,-93.9310,0.0,3.5,180.0,6.1,'11111222,11111222,11111222' 
TCOON,ioos:station:TCOON:524:1,2017-07-01T20:12:00Z,29.8672,-93.9310,0.0,3.1,220.0,5.3,'11111222,11111222,11111222' 
TCOON,ioos:station:TCOON:524:1,2017-07-01T20:18:00Z,29.8672,-93.9310,0.0,3.1,220.0,5.3,'1111122,1111122,1111122' 